DW4691 Weather Reports


time (UTC)temp
F
wind
direction
speed
knots
gust
knots
rain 1hr
in
rain 24hr
in
rain mn
in
humidity
%
barometer
mb
20260905184603 94 0 0.0 0.9 0.00 0.01 0.00 57 1012.6
20260905183058 95 0 0.0 0.9 0.00 0.01 0.00 54 1012.8
20260905181604 95 0 0.0 0.9 0.00 0.01 0.00 54 1013.0
20260905180051 94 0 0.0 0.9 0.00 0.01 0.00 58 1013.5
20260905174556 94 0 0.0 1.7 0.00 0.06 0.00 64 1013.8
20260905173056 92 0 0.0 0.0 0.00 0.06 0.00 62 1014.1
20260905171552 91 0 0.0 0.0 0.00 0.06 0.00 69 1014.2
20260905170105 89 0 0.0 0.0 0.00 0.06 0.00 72 1014.3
20260905164555 88 0 0.0 0.0 0.00 0.06 0.00 77 1014.3
20260905163054 90 0 0.0 0.0 0.00 0.06 0.00 73 1014.4
20260905161552 89 0 0.0 0.0 0.00 0.06 0.00 76 1014.4
20260905160115 88 0 0.0 0.0 0.00 0.06 0.00 76 1014.4
20260905154559 87 0 0.0 0.0 0.00 0.06 0.00 80 1014.4
20260905153053 87 0 0.0 0.0 0.00 0.06 0.00 79 1014.5
20260905151604 86 0 0.0 0.0 0.00 0.06 0.00 85 1014.5
20260905150054 84 0 0.0 0.0 0.00 0.06 0.00 86 1014.4
20260905144552 82 0 0.0 0.0 0.00 0.06 0.00 91 1014.3
20260905143055 81 0 0.0 0.0 0.00 0.06 0.00 94 1014.3
20260905141551 79 0 0.0 0.0 0.00 0.06 0.00 94 1014.3
20260905140052 78 0 0.0 0.0 0.00 0.06 0.00 94 1014.4
20260905134610 77 0 0.0 0.0 0.00 0.06 0.00 94 1014.2
20260905133057 76 0 0.0 0.0 0.00 0.06 0.00 94 1014.2
20260905131600 75 0 0.0 0.0 0.00 0.06 0.00 94 1014.2
20260905130051 75 0 0.0 0.0 0.00 0.06 0.00 93 1014.1
20260905124602 75 0 0.0 0.0 0.00 0.06 0.00 93 1013.8
20260905123059 74 0 0.0 0.0 0.00 0.06 0.00 93 1013.8
20260905121556 74 0 0.0 0.0 0.00 0.06 0.00 93 1013.5
20260905120110 74 0 0.0 0.0 0.00 0.06 0.00 93 1013.3
20260905114551 74 0 0.0 0.0 0.00 0.06 0.00 93 1013.3
20260905113057 75 0 0.0 0.0 0.00 0.06 0.00 93 1013.3
20260905111609 75 0 0.0 0.0 0.00 0.06 0.00 93 1013.0
20260905110057 74 0 0.0 0.0 0.00 0.06 0.00 93 1012.9
20260905104600 75 0 0.0 0.0 0.00 0.07 0.00 93 1012.7
20260905103053 75 0 0.0 0.0 0.00 0.07 0.00 93 1012.8
20260905101548 75 0 0.0 0.0 0.00 0.07 0.00 93 1012.7
20260905100056 75 0 0.0 0.0 0.00 0.07 0.00 93 1012.6
20260905094552 75 0 0.0 0.0 0.00 0.07 0.00 92 1012.7
20260905093052 75 0 0.0 0.0 0.00 0.07 0.00 93 1012.7
20260905091614 75 0 0.0 0.0 0.00 0.07 0.00 93 1012.7
20260905090117 75 0 0.0 0.0 0.00 0.07 0.00 93 1012.7
20260905084605 75 0 0.0 0.0 0.00 0.07 0.00 93 1012.6
20260905083053 75 0 0.0 0.0 0.00 0.07 0.00 92 1012.6
20260905081551 75 0 0.0 0.0 0.00 0.07 0.00 92 1012.6
20260905080059 76 0 0.0 0.0 0.00 0.07 0.00 92 1012.5
20260905074556 76 0 0.0 0.0 0.00 0.07 0.00 92 1012.7
20260905073059 76 0 0.0 0.0 0.00 0.07 0.00 92 1012.7
20260905071551 76 0 0.0 0.0 0.00 0.07 0.00 92 1013.1
20260905070107 76 0 0.0 0.0 0.00 0.07 0.00 92 1013.1
20260905064554 76 0 0.0 0.0 0.00 0.07 0.00 92 1013.2
20260905063053 76 0 0.0 0.0 0.00 0.07 0.00 92 1013.2
20260905061613 76 0 0.0 0.0 0.00 0.07 0.00 92 1013.2
20260905060109 77 0 0.0 0.0 0.00 0.07 0.00 91 1013.3
20260905054555 77 0 0.0 0.0 0.00 0.07 0.00 91 1013.3
20260905053054 77 0 0.0 0.0 0.00 0.07 0.00 91 1013.2
20260905051604 77 0 0.0 0.0 0.00 0.07 0.00 91 1013.4
20260905050101 77 0 0.0 0.0 0.00 0.07 0.00 91 1013.6
20260905044555 77 0 0.0 0.0 0.00 0.07 0.07 91 1013.4
20260905043051 77 0 0.0 0.0 0.00 0.07 0.07 91 1013.3
20260905041600 77 0 0.0 0.0 0.00 0.07 0.07 91 1013.3
20260905040059 77 0 0.0 0.0 0.00 0.07 0.07 90 1013.4
20260905034605 78 0 0.0 0.0 0.00 0.07 0.07 90 1013.4
20260905033055 78 0 0.0 0.0 0.00 0.07 0.07 90 1013.5
20260905031552 78 0 0.0 0.0 0.00 0.07 0.07 89 1013.5
20260905030125 78 0 0.0 0.0 0.00 0.07 0.07 89 1013.5
20260905024553 79 0 0.0 0.0 0.00 0.07 0.07 89 1013.6
20260905023051 79 0 0.0 0.0 0.00 0.07 0.07 88 1013.5
20260905021557 80 0 0.0 0.0 0.00 0.07 0.07 88 1013.3
20260905020104 80 0 0.0 0.0 0.00 0.07 0.07 89 1013.0
20260905014556 80 0 0.0 0.0 0.00 0.07 0.07 87 1013.0
20260905013052 81 0 0.0 0.0 0.00 0.07 0.07 88 1012.8
20260905011556 81 0 0.0 0.0 0.00 0.07 0.07 88 1012.6
20260905010107 82 0 0.0 0.0 0.00 0.07 0.07 87 1012.5
20260905004558 82 0 0.0 0.0 0.00 0.07 0.07 88 1012.3
20260905003055 83 0 0.0 0.0 0.00 0.07 0.07 87 1012.2
20260905001601 83 0 0.0 0.0 0.00 0.07 0.07 87 1012.1
20260905000112 84 0 0.0 0.0 0.00 0.07 0.07 86 1012.2
20260904234555 84 0 0.0 0.0 0.00 0.07 0.07 86 1012.1
20260904233114 84 0 0.0 0.0 0.00 0.07 0.07 85 1012.2
20260904231602 84 0 0.0 0.0 0.00 0.07 0.07 86 1012.2
20260904230117 85 0 0.0 0.0 0.00 0.07 0.07 85 1012.1
20260904224558 85 0 0.0 0.0 0.00 0.07 0.07 85 1012.1
20260904223127 87 0 0.0 0.0 0.00 0.07 0.07 83 1012.2
20260904221555 88 0 0.0 0.0 0.00 0.07 0.07 80 1012.4
20260904220053 88 0 0.0 0.0 0.00 0.07 0.07 75 1012.5
20260904214602 88 0 0.0 0.0 0.00 0.07 0.07 79 1012.4
20260904213056 89 0 0.0 0.0 0.00 0.07 0.07 79 1012.5
20260904211603 89 0 0.0 0.0 0.00 0.07 0.07 80 1012.7
20260904204602 85 0 0.0 0.0 0.00 0.07 0.07 83 1013.3
20260904203103 82 0 0.0 0.0 0.00 0.07 0.07 90 1013.6
20260904201558 80 0 0.0 0.0 0.00 0.07 0.07 91 1013.8
20260904200054 79 0 0.0 0.0 0.00 0.07 0.07 92 1013.8
20260904194603 79 0 0.0 0.0 0.00 0.07 0.07 92 1013.8
20260904193113 78 0 0.0 0.0 0.00 0.07 0.07 92 1013.8
20260904191555 78 0 0.0 0.0 0.00 0.07 0.07 92 1014.0
20260904190052 78 0 0.0 0.0 0.01 0.07 0.07 92 1014.3